Location: Unspecified
(0.0000°N, 0.0000°E)
Time: 12:33:35
(UTC+00:00)

Altair - All Passes

Search period start: 05 December 2016 00:00
Search period end: 15 December 2016 00:00
Orbit: 1501 x 1683 km, 47.2° (Epoch: 03 December)

Date Brightness Start Highest point End Pass type
(mag) Time Alt. Az. Time Alt. Az. Time Alt. Az.
05 Dec - 05:17:22 10° SSW 05:26:58 58° SE 05:36:10 10° NE visible
05 Dec - 07:23:32 10° WSW 07:31:30 30° NW 07:39:18 10° N daylight
05 Dec - 16:04:02 10° N 16:11:05 23° NE 16:18:17 10° E daylight
05 Dec - 18:06:13 10° NW 18:15:43 73° SW 18:25:39 10° SSE visible
05 Dec - 20:16:47 10° WSW 20:21:03 13° SW 20:25:22 10° SSW visible
06 Dec - 04:52:18 10° SSW 05:01:48 52° SE 05:10:53 10° ENE visible
06 Dec - 06:57:57 10° WSW 07:06:20 34° NW 07:14:29 10° NNE daylight
06 Dec - 15:39:24 10° N 15:45:52 20° NE 15:52:28 10° E daylight
06 Dec - 17:41:02 10° NW 17:50:33 80° SW 18:00:30 10° SE daylight
06 Dec - 19:50:31 10° WSW 19:55:44 15° SW 20:01:05 10° SSW visible
07 Dec - 04:27:17 10° SSW 04:36:38 46° SE 04:45:34 10° ENE visible
07 Dec - 06:32:26 10° WSW 06:41:10 38° NW 06:49:38 10° NNE daylight
07 Dec - 15:14:53 10° N 15:20:39 18° NE 15:26:31 10° E daylight
07 Dec - 17:15:54 10° NW 17:25:24 89° SW 17:35:19 10° SE daylight
07 Dec - 19:24:28 10° W 19:30:27 18° SW 19:36:36 10° S visible
08 Dec - 04:02:17 10° SSW 04:11:27 41° SE 04:20:12 10° ENE visible
08 Dec - 06:06:59 10° WSW 06:16:00 43° NW 06:24:44 10° NNE daylight
08 Dec - 14:50:30 10° NNE 14:55:25 15° NE 15:00:23 10° E daylight
08 Dec - 16:50:47 10° NW 17:00:14 83° NE 17:10:07 10° SE daylight
08 Dec - 18:58:36 10° W 19:05:11 20° SW 19:11:58 10° S visible
09 Dec - 03:37:21 10° SSW 03:46:15 37° SE 03:54:47 10° ENE visible
09 Dec - 05:41:34 10° WSW 05:50:51 48° NW 05:59:49 10° NNE daylight
09 Dec - 14:26:23 10° NNE 14:30:10 13° NE 14:33:59 10° ENE daylight
09 Dec - 16:25:42 10° NNW 16:35:05 75° NE 16:44:53 10° SE daylight
09 Dec - 18:32:50 10° W 18:39:56 23° SW 18:47:16 10° S visible
10 Dec - 03:12:25 10° SSW 03:21:02 33° SE 03:29:20 10° ENE visible
10 Dec - 05:16:11 10° SW 05:25:42 54° NW 05:34:51 10° NNE visible
10 Dec - 14:02:58 10° NNE 14:04:54 11° NE 14:06:51 10° ENE daylight
10 Dec - 16:00:39 10° NNW 16:09:57 67° NE 16:19:37 10° SE daylight
10 Dec - 18:07:10 10° W 18:14:41 26° SW 18:22:29 10° S visible
11 Dec - 02:47:32 10° S 02:55:49 29° SE 03:03:48 10° ENE visible
11 Dec - 04:50:51 10° SW 05:00:32 61° NW 05:09:51 10° NNE visible
11 Dec - 15:35:38 10° NNW 15:44:48 60° NE 15:54:19 10° SE daylight
11 Dec - 17:41:36 10° WNW 17:49:29 29° SW 17:57:40 10° S daylight
12 Dec - 02:22:43 10° S 02:30:35 26° SE 02:38:12 10° E visible
12 Dec - 04:25:33 10° SW 04:35:23 68° NW 04:44:50 10° NNE visible
12 Dec - 06:37:45 10° WNW 06:40:26 11° NW 06:43:06 10° NNW daylight
12 Dec - 15:10:39 10° NNW 15:19:39 53° NE 15:28:58 10° SE daylight
12 Dec - 17:16:05 10° WNW 17:24:16 33° SW 17:32:46 10° SSE daylight
13 Dec - 01:57:56 10° S 02:05:20 23° SE 02:12:31 10° E visible
13 Dec - 04:00:17 10° SW 04:10:14 76° NW 04:19:46 10° NE visible
13 Dec - 06:10:55 10° WNW 06:15:10 13° NW 06:19:22 10° NNW daylight
13 Dec - 14:45:42 10° NNW 14:54:30 47° NE 15:03:36 10° ESE daylight
13 Dec - 16:50:38 10° WNW 16:59:04 37° SW 17:07:51 10° SSE daylight
14 Dec - 01:33:14 10° S 01:40:04 20° SE 01:46:45 10° E visible
14 Dec - 03:35:03 10° SW 03:45:04 84° NW 03:54:41 10° NE visible
14 Dec - 05:44:36 10° W 05:49:55 16° NW 05:55:10 10° NNW daylight
14 Dec - 14:20:47 10° NNW 14:29:21 42° NE 14:38:11 10° ESE daylight
14 Dec - 16:25:14 10° WNW 16:33:53 41° SW 16:42:53 10° SSE daylight
